When you browse on this site, cookies collect data to enhance your experience and personalize the content and advertising you see.
Visit our Privacy Policy to learn more. By continuing to use the site, you agree to this use of cookies and data.
  • In Schweiz
  • Länderverzeichnis
  • Für 7 Tage
  • Wassertemperatur
  • Wetterkarte
  • Widgets
  • user-avatar
    Anmelden

    Stündliche Wetter Peresvetovo

    Heute, 17 August, Samstag

    Zeit Temperatur Niederschläge Wind Luftdruck Luftfeuchtigkeit
    00:00 +12°C° 0.1 mm 3 m/S 744 mmHg 81%
    01:00 +12°C° 0.1 mm 3 m/S 744 mmHg 81%
    02:00 +13°C° 0 mm 3 m/S 744 mmHg 80%
    03:00 +13°C° 0.1 mm 3 m/S 743 mmHg 83%
    04:00 +12°C° 0.1 mm 4 m/S 743 mmHg 86%
    05:00 +12°C° 0.1 mm 4 m/S 743 mmHg 90%
    06:00 +13°C° 0 mm 4 m/S 743 mmHg 88%
    07:00 +13°C° 0 mm 4 m/S 743 mmHg 86%
    08:00 +13°C° 0 mm 4 m/S 743 mmHg 84%
    09:00 +14°C° 0.1 mm 4 m/S 743 mmHg 85%
    10:00 +14°C° 0.1 mm 4 m/S 743 mmHg 86%
    11:00 +14°C° 0.1 mm 5 m/S 743 mmHg 87%
    12:00 +14°C° 0.4 mm 4 m/S 743 mmHg 88%
    13:00 +14°C° 0.4 mm 4 m/S 743 mmHg 89%
    14:00 +14°C° 0.4 mm 4 m/S 743 mmHg 90%
    15:00 +14°C° 0.7 mm 4 m/S 742 mmHg 92%
    16:00 +14°C° 0.7 mm 4 m/S 742 mmHg 93%
    17:00 +14°C° 0.7 mm 3 m/S 742 mmHg 94%
    18:00 +14°C° 0.8 mm 4 m/S 742 mmHg 95%
    19:00 +14°C° 0.8 mm 4 m/S 742 mmHg 95%
    20:00 +14°C° 0.8 mm 4 m/S 741 mmHg 96%
    21:00 +14°C° 0.9 mm 4 m/S 741 mmHg 96%
    22:00 +14°C° 0.9 mm 4 m/S 741 mmHg 96%
    23:00 +14°C° 0.9 mm 4 m/S 741 mmHg 97%

    Morgen, 18 August, Sonntag

    Zeit Temperatur Niederschläge Wind Luftdruck Luftfeuchtigkeit
    00:00 +14°C° 1.2 mm 4 m/S 741 mmHg 97%
    01:00 +13°C° 1.2 mm 3 m/S 740 mmHg 97%
    02:00 +13°C° 1.2 mm 3 m/S 740 mmHg 97%
    03:00 +13°C° 0.1 mm 3 m/S 740 mmHg 97%
    04:00 +13°C° 0.1 mm 3 m/S 740 mmHg 97%
    05:00 +12°C° 0.1 mm 3 m/S 740 mmHg 97%
    06:00 +13°C° 0 mm 3 m/S 740 mmHg 95%
    07:00 +13°C° 0 mm 3 m/S 740 mmHg 94%
    08:00 +14°C° 0 mm 3 m/S 741 mmHg 92%
    09:00 +17°C° 0 mm 3 m/S 741 mmHg 85%
    10:00 +18°C° 0 mm 3 m/S 741 mmHg 79%
    11:00 +20°C° 0 mm 3 m/S 741 mmHg 72%
    12:00 +21°C° 0 mm 3 m/S 742 mmHg 69%
    13:00 +21°C° 0 mm 3 m/S 742 mmHg 66%
    14:00 +22°C° 0 mm 3 m/S 742 mmHg 63%
    15:00 +22°C° 0 mm 3 m/S 742 mmHg 66%
    16:00 +22°C° 0 mm 3 m/S 742 mmHg 69%
    17:00 +21°C° 0 mm 3 m/S 743 mmHg 72%
    18:00 +19°C° 0 mm 2 m/S 743 mmHg 77%
    19:00 +18°C° 0 mm 2 m/S 743 mmHg 82%
    20:00 +16°C° 0 mm 2 m/S 743 mmHg 87%
    21:00 +15°C° 0 mm 2 m/S 744 mmHg 89%
    22:00 +14°C° 0 mm 2 m/S 744 mmHg 90%
    23:00 +14°C° 0 mm 1 m/S 744 mmHg 92%

    übermorgen, 19 August, Montag

    Zeit Temperatur Niederschläge Wind Luftdruck Luftfeuchtigkeit
    00:00 +14°C° 0 mm 1 m/S 744 mmHg 92%
    01:00 +13°C° 0 mm 1 m/S 745 mmHg 92%
    02:00 +13°C° 0 mm 1 m/S 745 mmHg 92%
    03:00 +13°C° 0 mm 1 m/S 745 mmHg 92%
    04:00 +13°C° 0 mm 2 m/S 745 mmHg 92%
    05:00 +13°C° 0 mm 2 m/S 745 mmHg 91%
    06:00 +15°C° 0 mm 2 m/S 746 mmHg 87%
    07:00 +16°C° 0 mm 3 m/S 746 mmHg 82%
    08:00 +18°C° 0 mm 3 m/S 746 mmHg 77%
    09:00 +20°C° 0 mm 3 m/S 746 mmHg 74%
    10:00 +21°C° 0 mm 4 m/S 746 mmHg 71%
    11:00 +23°C° 0 mm 4 m/S 747 mmHg 67%
    12:00 +23°C° 0 mm 4 m/S 747 mmHg 66%
    13:00 +25°C° 0 mm 4 m/S 747 mmHg 65%
    14:00 +26°C° 0 mm 4 m/S 747 mmHg 64%
    15:00 +25°C° 0 mm 4 m/S 747 mmHg 67%
    16:00 +25°C° 0 mm 3 m/S 747 mmHg 71%
    17:00 +25°C° 0 mm 3 m/S 747 mmHg 74%
    18:00 +22°C° 0 mm 3 m/S 747 mmHg 78%
    19:00 +21°C° 0 mm 3 m/S 747 mmHg 83%
    20:00 +19°C° 0 mm 3 m/S 747 mmHg 87%
    21:00 +19°C° 0 mm 3 m/S 747 mmHg 87%
    22:00 +18°C° 0 mm 3 m/S 747 mmHg 86%
    23:00 +18°C° 0 mm 3 m/S 747 mmHg 86%

    20 August, Dienstag

    Zeit Temperatur Niederschläge Wind Luftdruck Luftfeuchtigkeit
    00:00 +17°C° 0.1 mm 3 m/S 748 mmHg 88%
    01:00 +17°C° 0.1 mm 3 m/S 748 mmHg 89%
    02:00 +16°C° 0.1 mm 2 m/S 748 mmHg 91%
    03:00 +16°C° 0.2 mm 2 m/S 748 mmHg 91%
    04:00 +16°C° 0.2 mm 2 m/S 748 mmHg 91%
    05:00 +16°C° 0.2 mm 2 m/S 748 mmHg 90%
    06:00 +17°C° 0 mm 2 m/S 748 mmHg 88%
    07:00 +18°C° 0 mm 3 m/S 748 mmHg 85%
    08:00 +19°C° 0 mm 3 m/S 748 mmHg 83%
    09:00 +21°C° 0 mm 3 m/S 748 mmHg 79%
    10:00 +22°C° 0 mm 4 m/S 748 mmHg 75%
    11:00 +25°C° 0 mm 4 m/S 748 mmHg 72%
    12:00 +26°C° 0.1 mm 4 m/S 748 mmHg 71%
    13:00 +26°C° 0.1 mm 3 m/S 748 mmHg 71%
    14:00 +27°C° 0.1 mm 3 m/S 748 mmHg 70%
    15:00 +26°C° 0.3 mm 3 m/S 748 mmHg 75%
    16:00 +26°C° 0.3 mm 3 m/S 748 mmHg 79%
    17:00 +25°C° 0.3 mm 2 m/S 748 mmHg 83%
    18:00 +24°C° 0.3 mm 2 m/S 748 mmHg 86%
    19:00 +23°C° 0.3 mm 2 m/S 748 mmHg 90%
    20:00 +21°C° 0.3 mm 2 m/S 748 mmHg 93%
    21:00 +20°C° 0 mm 2 m/S 748 mmHg 93%
    22:00 +20°C° 0 mm 2 m/S 748 mmHg 94%
    23:00 +20°C° 0 mm 1 m/S 748 mmHg 95%

    21 August, Mittwoch

    Zeit Temperatur Niederschläge Wind Luftdruck Luftfeuchtigkeit
    00:00 +20°C° 0 mm 1 m/S 748 mmHg 95%
    01:00 +19°C° 0 mm 1 m/S 749 mmHg 95%
    02:00 +19°C° 0 mm 1 m/S 749 mmHg 96%
    03:00 +19°C° 0 mm 1 m/S 748 mmHg 96%
    04:00 +19°C° 0 mm 1 m/S 748 mmHg 96%
    05:00 +19°C° 0 mm 1 m/S 748 mmHg 96%
    06:00 +20°C° 0 mm 1 m/S 748 mmHg 93%
    07:00 +21°C° 0 mm 1 m/S 748 mmHg 90%
    08:00 +23°C° 0 mm 1 m/S 749 mmHg 87%
    09:00 +24°C° 0 mm 2 m/S 748 mmHg 81%
    10:00 +26°C° 0 mm 2 m/S 748 mmHg 75%
    11:00 +27°C° 0 mm 3 m/S 748 mmHg 69%
    12:00 +27°C° 0 mm 3 m/S 748 mmHg 68%
    13:00 +28°C° 0 mm 3 m/S 748 mmHg 67%
    14:00 +28°C° 0 mm 3 m/S 747 mmHg 66%
    15:00 +28°C° 0 mm 3 m/S 747 mmHg 69%
    16:00 +28°C° 0 mm 2 m/S 746 mmHg 72%
    17:00 +27°C° 0 mm 2 m/S 746 mmHg 74%
    18:00 +25°C° 0 mm 2 m/S 746 mmHg 79%
    19:00 +24°C° 0 mm 2 m/S 746 mmHg 83%
    20:00 +21°C° 0 mm 2 m/S 745 mmHg 87%
    21:00 +20°C° 0 mm 2 m/S 745 mmHg 88%
    22:00 +20°C° 0 mm 2 m/S 745 mmHg 89%
    23:00 +19°C° 0 mm 2 m/S 745 mmHg 90%

    22 August, Donnerstag

    Zeit Temperatur Niederschläge Wind Luftdruck Luftfeuchtigkeit
    00:00 +19°C° 0 mm 2 m/S 745 mmHg 89%
    01:00 +18°C° 0 mm 3 m/S 745 mmHg 88%
    02:00 +18°C° 0 mm 3 m/S 745 mmHg 87%
    03:00 +18°C° 0 mm 3 m/S 745 mmHg 89%
    04:00 +17°C° 0 mm 4 m/S 745 mmHg 90%
    05:00 +16°C° 0 mm 5 m/S 746 mmHg 92%
    06:00 +16°C° 0 mm 5 m/S 746 mmHg 89%
    07:00 +15°C° 0 mm 5 m/S 747 mmHg 86%
    08:00 +15°C° 0 mm 5 m/S 747 mmHg 83%
    09:00 +16°C° 0 mm 5 m/S 748 mmHg 79%
    10:00 +17°C° 0 mm 5 m/S 749 mmHg 74%
    11:00 +20°C° 0 mm 5 m/S 749 mmHg 70%
    12:00 +20°C° 0 mm 5 m/S 749 mmHg 67%
    13:00 +21°C° 0 mm 4 m/S 750 mmHg 65%
    14:00 +21°C° 0 mm 4 m/S 750 mmHg 62%
    15:00 +21°C° 0 mm 3 m/S 750 mmHg 64%
    16:00 +21°C° 0 mm 3 m/S 750 mmHg 67%
    17:00 +21°C° 0 mm 2 m/S 750 mmHg 69%
    18:00 +19°C° 0 mm 2 m/S 750 mmHg 74%
    19:00 +17°C° 0 mm 2 m/S 750 mmHg 79%
    20:00 +15°C° 0 mm 2 m/S 750 mmHg 83%
    21:00 +15°C° 0 mm 2 m/S 751 mmHg 84%
    22:00 +14°C° 0 mm 2 m/S 751 mmHg 85%
    23:00 +13°C° 0 mm 1 m/S 751 mmHg 85%
    Mehr zeigen